This demonstration page uses our WeatherBlox Daily Observations layout. Learn more.

Left ArrowRight Arrow

38.89511, -77.03637

Hourly Observations for January 3, 2019

Temp ( °F °C ) Dew Point ( °F °C ) Humidity (%) Winds ( mph kmh ) Pressure ( in mb ) Visibility ( mi km ) Precip ( " mm )
12:52 am 00:52 Cloudy 46 7.8 39 3.9 77 77 S 9 15 30.00 1016 10 16 0.00 0.00
1:52 am 01:52 Cloudy 46 7.8 38 3.3 73 73 S 7 11 29.98 1015 10 16 0.00 0.00
2:52 am 02:52 Cloudy 46 7.8 38 3.3 73 73 SSW 5 7 29.96 1014 10 16 0.00 0.00
3:52 am 03:52 Cloudy 46 7.8 38 3.3 73 73 SW 6 9 29.95 1014 10 16 0.00 0.00
4:52 am 04:52 Cloudy 46 7.8 39 3.9 77 77 S 3 6 29.92 1013 10 16 0.00 0.00
5:52 am 05:52 Cloudy 47 8.3 39 3.9 74 74 Calm 29.93 1014 10 16 0.00 0.00
6:52 am 06:52 Cloudy 47 8.3 39 3.9 74 74 SSW 5 7 29.95 1014 10 16 0.00 0.00
7:52 am 07:52 Cloudy 47 8.3 39 3.9 74 74 SW 5 7 29.98 1015 10 16 0.00 0.00
8:52 am 08:52 Cloudy 48 8.9 39 3.9 71 71 Calm 30.00 1016 10 16 0.00 0.00
9:52 am 09:52 Cloudy 49 9.4 39 3.9 69 69 N 6 9 30.02 1017 10 16 0.00 0.00
10:52 am 10:52 Cloudy 50 10 37 2.8 61 61 NNW 16 26 30.02 1017 10 16 0.00 0.00
11:52 am 11:52 Cloudy 50 10 32 0 50 50 NW 14 22 30.01 1016 10 16 0.00 0.00
12:52 pm 12:52 Mostly Cloudy 51 10.6 32 0 48 48 NNW 17 28 30.01 1016 10 16 0.00 0.00
1:52 pm 13:52 Mostly Cloudy 50 10 31 -0.6 48 48 NNW 18 30 30.00 1016 10 16 0.00 0.00
2:52 pm 14:52 Mostly Cloudy 50 10 30 -1.1 46 46 NNW 15 24 30.01 1016 10 16 0.00 0.00
3:52 pm 15:52 Mostly Cloudy 49 9.4 30 -1.1 48 48 NNW 9 15 30.01 1016 10 16 0.00 0.00
4:52 pm 16:52 Mostly Cloudy 46 7.8 29 -1.7 51 51 N 6 9 30.02 1017 10 16 0.00 0.00
5:52 pm 17:52 Mostly Cloudy 45 7.2 30 -1.1 56 56 NNE 6 9 30.04 1017 10 16 0.00 0.00
6:52 pm 18:52 Mostly Cloudy 46 7.8 31 -0.6 56 56 Calm 30.06 1018 10 16 0.00 0.00
7:52 pm 19:52 Mostly Cloudy 45 7.2 31 -0.6 58 58 N 3 6 30.07 1018 10 16 0.00 0.00
8:52 pm 20:52 Partly Cloudy 43 6.1 31 -0.6 63 63 Calm 30.09 1019 10 16 0.00 0.00
9:52 pm 21:52 Mostly Cloudy 43 6.1 31 -0.6 63 63 E 3 6 30.09 1019 10 16 0.00 0.00
10:52 pm 22:52 Mostly Cloudy 42 5.6 32 0 68 68 NE 3 6 30.09 1019 10 16 0.00 0.00
11:52 pm 23:52 Mostly Cloudy 41 5 33 0.6 73 73 SSE 3 6 30.08 1019 10 16 0.00 0.00

Powered by AerisWeather